Regional Weather Roundup
Issued by NWS Little Rock, AR

Home | Current Version | Previous Version | Text Only | Print | Product List | Glossary On
Versions: 1 2 3 4 5 6 7 8 9 10 11 12 13 14 15 16 17 18 19 20 21 22 23 24 25 26 27 28 29 30 31 32 33 34 35 36 37 38 39 40 41 42 43 44 45 46 47 48 49
000
ASUS44 KLZK 291705
RWRLZK

WEATHER ROUNDUP FOR ARKANSAS
NATIONAL WEATHER SERVICE LITTLE ROCK AR
1200 PM CDT TUE JUL 29 2014

NOTE: "FAIR" INDICATES FEW OR NO CLOUDS BELOW 12,000 FEET WITH NO
SIGNIFICANT WEATHER AND/OR OBSTRUCTIONS TO VISIBILITY.

ARZ001-003-010-029-291800-
NORTHWEST ARKANSAS

CITY           SKY/WX    TMP DP  RH WIND       PRES   REMARKS
FAYETTEVILLE   SUNNY     80  59  48 NE5       30.19F
FORT SMITH     SUNNY     83  62  49 VRB3      30.16F
HARRISON       SUNNY     77  55  46 VRB5      30.20F
BENTONVILLE    MOSUNNY   77  55  47 CALM      30.21F
ROGERS         MOSUNNY   80  57  45 S7        30.21S
SILOAM SPGS    SUNNY     79  57  47 CALM      30.21S
HIGHFILL       MOSUNNY   76  58  53 SW5       30.20S
SPRINGDALE     MOSUNNY   79  59  50 SE3       30.21F
$$

ARZ004-005-016-291800-
NORTH CENTRAL ARKANSAS

CITY           SKY/WX    TMP DP  RH WIND       PRES   REMARKS
BATESVILLE     SUNNY     77  55  47 CALM      30.17S
FLIPPIN        SUNNY     77  54  44 NE6       30.18F
MTN HOME       SUNNY     77  58  51 S7        30.17F
$$

ARZ040-041-291800-
WEST CENTRAL ARKANSAS

CITY           SKY/WX    TMP DP  RH WIND       PRES   REMARKS
MENA           SUNNY     81  63  54 CALM      30.18S
MOUNT IDA      SUNNY     80  64  58 VRB3      30.15F
$$

ARZ009-017-025-026-028-291800-
NORTHEAST ARKANSAS

CITY           SKY/WX    TMP DP  RH WIND       PRES   REMARKS
CORNING          N/A     75  54  46 NE9       30.17S
JONESBORO      SUNNY     76  57  51 NE7       30.15F
NEWPORT        SUNNY     77  55  46 NE7       30.18S
WALNUT RIDGE   SUNNY     75  54  46 NE10      30.16F
BLYTHEVILLE    PTSUNNY   77  57  50 N6        30.15F
NW BLYTHEVILLE PTSUNNY   75  54  46 N5        30.15F
$$

ARZ022-023-033-042-044-291800-
CENTRAL ARKANSAS

CITY           SKY/WX    TMP DP  RH WIND       PRES   REMARKS
LITTLE ROCK    MOSUNNY   80  58  46 NE10      30.16F
N LITTLE ROCK  MOSUNNY   78  63  60 N6        30.16F
JACKSONVILLE   SUNNY     79  60  53 NE8       30.16F
SEARCY         SUNNY     78  58  50 NE8       30.17F
HOT SPRINGS    SUNNY     79  63  57 VRB5      30.16F
RUSSELLVILLE   SUNNY     79  61  53 VRB3      30.16F
CLINTON        FAIR      79  59  50 N5        30.17F
$$

ARZ036-291800-
EAST ARKANSAS

CITY           SKY/WX    TMP DP  RH WIND       PRES   REMARKS
WEST MEMPHIS   SUNNY     77  56  48 N12G17    30.13F
$$

ARZ050-053-066-070-073-291800-
SOUTHWEST ARKANSAS

CITY           SKY/WX    TMP DP  RH WIND       PRES   REMARKS
ARKADELPHIA    FAIR      83  67  58 VRB3      30.15F HX  85
CAMDEN         SUNNY     82  64  54 NE6       30.13F
TEXARKANA      SUNNY     82  66  58 VRB5      30.14S
EL DORADO      SUNNY     83  69  62 VRB5      30.12F HX  86
DE QUEEN       SUNNY     83  66  56 E7        30.13S HX  85
$$

ARZ056-057-069-291800-
SOUTHEAST ARKANSAS

CITY           SKY/WX    TMP DP  RH WIND       PRES   REMARKS
PINE BLUFF     SUNNY     80  61  52 NE10      30.15F
STUTTGART      SUNNY     79  61  53 N9        30.16S
MONTICELLO     SUNNY     82  64  54 NE10      30.12F

$$





USA.gov is the U.S. government's official web portal to all federal, state and local government web resources and services.